OBJECT E, 43755

Orbit data source: Space-Track

You're viewing an Uncataloged Satellite

Recently launched and/or uncataloged satellites may have evolving metadata. Metadata may include but not limited to: Owner, Maufacturer, Bus, Motor, and Mission.

OBJECT E, 43755 is a satellite owned by NIIPP (CIS) in LEO that was launched on Fri, 30 Nov 2018 UTC launched from the Plesetsk Missile And Space Complex (PKMTR). Unknown objects in Earth's orbit typically refer to objects detected orbiting the Earth but have not yet been identified or cataloged. These objects could be anything from previously untracked satellites, spent rocket stages, debris from satellite collisions, or even natural meteoroids temporarily captured by Earth's gravity.

Loading next visibility...
Identifier
43755, 2018-097E
Orbit
LEO
Country
Flag of CISCIS
Related business
Manufacturer
NIIPP
Mission
Spacecraft
Bus & Motor
Unknown
Mass
Unknown
Launch date (UTC)
2018-11-30 (7 years ago)
Launch vehicle
Unknown
Launch site
Plesetsk Missile And Space Complex (PKMTR)
Object type
Unknown
Shape & HBR
Box, 0.1 m
Radar Cross Section
0.060 m², Small (<0.1 m²)

Expand to show TLE details & history
Last TLE update: 8 hours ago

TLE from 8 hours ago
0 OBJECT E
1 43755U 18097E   25312.87507929  .00000076  00000-0  24818-3 0  9998
2 43755  82.5143 243.3537 0217350  92.1655 270.4350 12.80903334324409
Epoch: 2025-11-08T21:00Z
TLE epoch observation values (Epoch: 2025-11-08T21:00:06.850Z)
Latitude
-0.00006°
Longitude
-119.97327°
Altitude
1,342.969 km
Speed
7.185 km/s
True Right ascension
16h 13m 24s
True Declination
0° 00' 00"
Sunlit
Object was in daylight at epoch
Visualization orbit readout
Latitude
Unknown
Longitude
Unknown
Altitude
Unknown
Speed
Unknown
Apparent Right ascension
Unknown
Apparent Declination
Unknown
Sunlit
N/A
Visualization observer readout
Local Sidereal Time
01:11:09
Azimuth
Unknown
Elevation
Unknown
Doppler factor
Unknown
Orbital elements
Apogee altitude
1,502.783 km
Perigee altitude
1,167.487 km
Semi-major axis
7,713.272 km
Eccentricity
0.02174
Inclination
82.5143°
RAAN
243.3537°
Arg. of periapsis
92.1655°
True anomaly
267.94469°
Mean anomaly
270.435°
Eccentric anomaly
269.1898°
Mean motion
3.20395 °/min
Orbital period
112.36 mins
BSTAR
0.00024818
Loading maneuver chart data...
Computing Atmospheric mass density...
Loading historical data...
Loading historical data...
Loading historical data...
Loading historical data...
Loading historical data...
Loading historical data...
Loading historical data...
Other satellites on launch #97 in the year 2018 (2018-11-30 UTC)

Documentation

Showing up to 5 results
|